Year,Month,Day,Hour,Minute,Value (Times are PST for temperature in C)
2016,04,18,00,00,14.90
2016,04,18,00,01,14.90
2016,04,18,00,02,14.90
2016,04,18,00,03,14.90
2016,04,18,00,04,14.90
2016,04,18,00,05,14.90
2016,04,18,00,06,15.00
2016,04,18,00,07,15.00
2016,04,18,00,08,15.00
2016,04,18,00,09,14.90
2016,04,18,00,10,15.00
2016,04,18,00,11,15.00
2016,04,18,00,12,15.00
2016,04,18,00,13,15.00
2016,04,18,00,14,15.00
2016,04,18,00,15,15.00
2016,04,18,00,16,15.00
2016,04,18,00,17,15.00
2016,04,18,00,18,15.10
2016,04,18,00,19,15.10
2016,04,18,00,20,15.10
2016,04,18,00,21,15.10
2016,04,18,00,22,15.20
2016,04,18,00,23,15.20
2016,04,18,00,24,15.20
2016,04,18,00,25,15.20
2016,04,18,00,26,15.20
2016,04,18,00,27,15.20
2016,04,18,00,28,15.20
2016,04,18,00,29,15.20
2016,04,18,00,30,15.20
2016,04,18,00,31,15.20
2016,04,18,00,32,15.30
2016,04,18,00,33,15.30
2016,04,18,00,34,15.30
2016,04,18,00,35,15.40
2016,04,18,00,36,15.40
2016,04,18,00,37,15.40
2016,04,18,00,38,15.40
2016,04,18,00,39,15.40
2016,04,18,00,40,15.40
2016,04,18,00,41,15.40
2016,04,18,00,42,15.40
2016,04,18,00,43,15.50
2016,04,18,00,44,15.50
2016,04,18,00,45,15.50
2016,04,18,00,46,15.60
2016,04,18,00,47,15.60
2016,04,18,00,48,15.60
2016,04,18,00,49,15.50
2016,04,18,00,50,15.50
2016,04,18,00,51,15.40
2016,04,18,00,52,15.40
2016,04,18,00,53,15.40
2016,04,18,00,54,15.40
2016,04,18,00,55,15.40
2016,04,18,00,56,15.30
2016,04,18,00,57,15.40
2016,04,18,00,58,15.30
2016,04,18,00,59,15.30
2016,04,18,01,00,15.30
2016,04,18,01,01,15.30
2016,04,18,01,02,15.30
2016,04,18,01,03,15.30
2016,04,18,01,04,15.30
2016,04,18,01,05,15.30
2016,04,18,01,06,15.30
2016,04,18,01,07,15.30
2016,04,18,01,08,15.40
2016,04,18,01,09,15.40
2016,04,18,01,10,15.40
2016,04,18,01,11,15.40
2016,04,18,01,12,15.40
2016,04,18,01,13,15.40
2016,04,18,01,14,15.40
2016,04,18,01,15,15.40
2016,04,18,01,16,15.40
2016,04,18,01,17,15.40
2016,04,18,01,18,15.40
2016,04,18,01,19,15.50
2016,04,18,01,20,15.50
2016,04,18,01,21,15.50
2016,04,18,01,22,15.50
2016,04,18,01,23,15.50
2016,04,18,01,24,15.50
2016,04,18,01,25,15.50
2016,04,18,01,26,15.40
2016,04,18,01,27,15.40
2016,04,18,01,28,15.40
2016,04,18,01,29,15.40
2016,04,18,01,30,15.40
2016,04,18,01,31,15.40
2016,04,18,01,32,15.30
2016,04,18,01,33,15.30
2016,04,18,01,34,15.30
2016,04,18,01,35,15.30
2016,04,18,01,36,15.30
2016,04,18,01,37,15.30
2016,04,18,01,38,15.30
2016,04,18,01,39,15.30
2016,04,18,01,40,15.30
2016,04,18,01,41,15.30
2016,04,18,01,42,15.30
2016,04,18,01,43,15.30
2016,04,18,01,44,15.20
2016,04,18,01,45,15.20
2016,04,18,01,46,15.20
2016,04,18,01,47,15.20
2016,04,18,01,48,15.10
2016,04,18,01,49,15.10
2016,04,18,01,50,15.10
2016,04,18,01,51,15.10
2016,04,18,01,52,15.10
2016,04,18,01,53,15.10
2016,04,18,01,54,15.10
2016,04,18,01,55,15.10
2016,04,18,01,56,15.10
2016,04,18,01,57,15.00
2016,04,18,01,58,15.00
2016,04,18,01,59,15.00
2016,04,18,02,00,15.00
2016,04,18,02,01,14.90
2016,04,18,02,02,14.90
2016,04,18,02,03,14.90
2016,04,18,02,04,14.90
2016,04,18,02,05,14.90
2016,04,18,02,06,14.80
2016,04,18,02,07,14.80
2016,04,18,02,08,14.90
2016,04,18,02,09,14.90
2016,04,18,02,10,14.90
2016,04,18,02,11,14.90
2016,04,18,02,12,14.90
2016,04,18,02,13,14.90
2016,04,18,02,14,14.90
2016,04,18,02,15,14.80
2016,04,18,02,16,14.80
2016,04,18,02,17,14.80
2016,04,18,02,18,14.80
2016,04,18,02,19,14.80
2016,04,18,02,20,14.80
2016,04,18,02,21,14.80
2016,04,18,02,22,14.80
2016,04,18,02,23,14.80
2016,04,18,02,24,14.80
2016,04,18,02,25,14.80
2016,04,18,02,26,14.80
2016,04,18,02,27,14.80
2016,04,18,02,28,14.80
2016,04,18,02,29,14.80
2016,04,18,02,30,14.80
2016,04,18,02,31,14.80
2016,04,18,02,32,14.80
2016,04,18,02,33,14.80
2016,04,18,02,34,14.80
2016,04,18,02,35,14.80
2016,04,18,02,36,14.80
2016,04,18,02,37,14.90
2016,04,18,02,38,14.90
2016,04,18,02,39,14.90
2016,04,18,02,40,14.90
2016,04,18,02,41,14.90
2016,04,18,02,42,14.90
2016,04,18,02,43,14.90
2016,04,18,02,44,15.00
2016,04,18,02,45,15.00
2016,04,18,02,46,15.00
2016,04,18,02,47,15.00
2016,04,18,02,48,15.00
2016,04,18,02,49,15.00
2016,04,18,02,50,14.90
2016,04,18,02,51,14.90
2016,04,18,02,52,14.90
2016,04,18,02,53,14.80
2016,04,18,02,54,14.80
2016,04,18,02,55,14.80
2016,04,18,02,56,14.80
2016,04,18,02,57,14.80
2016,04,18,02,58,14.80
2016,04,18,02,59,14.70
2016,04,18,03,00,14.70
2016,04,18,03,01,14.70
2016,04,18,03,02,14.70
2016,04,18,03,03,14.60
2016,04,18,03,04,14.60
2016,04,18,03,05,14.60
2016,04,18,03,06,14.60
2016,04,18,03,07,14.50
2016,04,18,03,08,14.50
2016,04,18,03,09,14.50
2016,04,18,03,10,14.50
2016,04,18,03,11,14.50
2016,04,18,03,12,14.50
2016,04,18,03,13,14.50
2016,04,18,03,14,14.60
2016,04,18,03,15,14.60
2016,04,18,03,16,14.60
2016,04,18,03,17,14.60
2016,04,18,03,18,14.60
2016,04,18,03,19,14.60
2016,04,18,03,20,14.60
2016,04,18,03,21,14.60
2016,04,18,03,22,14.50
2016,04,18,03,23,14.50
2016,04,18,03,24,14.50
2016,04,18,03,25,14.40
2016,04,18,03,26,14.40
2016,04,18,03,27,14.40
2016,04,18,03,28,14.40
2016,04,18,03,29,14.40
2016,04,18,03,30,14.40
2016,04,18,03,31,14.40
2016,04,18,03,32,14.40
2016,04,18,03,33,14.40
2016,04,18,03,34,14.40
2016,04,18,03,35,14.30
2016,04,18,03,36,14.30
2016,04,18,03,37,14.30
2016,04,18,03,38,14.30
2016,04,18,03,39,14.30
2016,04,18,03,40,14.20
2016,04,18,03,41,14.20
2016,04,18,03,42,14.20
2016,04,18,03,43,14.20
2016,04,18,03,44,14.20
2016,04,18,03,45,14.20
2016,04,18,03,46,14.20
2016,04,18,03,47,14.10
2016,04,18,03,48,14.10
2016,04,18,03,49,14.10
2016,04,18,03,50,14.10
2016,04,18,03,51,14.00
2016,04,18,03,52,14.00
2016,04,18,03,53,14.00
2016,04,18,03,54,14.00
2016,04,18,03,55,14.00
2016,04,18,03,56,14.00
2016,04,18,03,57,14.00
2016,04,18,03,58,14.00
2016,04,18,03,59,13.90
2016,04,18,04,00,13.90
2016,04,18,04,01,14.00
2016,04,18,04,02,14.00
2016,04,18,04,03,14.00
2016,04,18,04,04,14.10
2016,04,18,04,05,14.10
2016,04,18,04,06,14.10
2016,04,18,04,07,14.10
2016,04,18,04,08,14.10
2016,04,18,04,09,14.20
2016,04,18,04,10,14.20
2016,04,18,04,11,14.20
2016,04,18,04,12,14.20
2016,04,18,04,13,14.30
2016,04,18,04,14,14.30
2016,04,18,04,15,14.30
2016,04,18,04,16,14.30
2016,04,18,04,17,14.30
2016,04,18,04,18,14.30
2016,04,18,04,19,14.40
2016,04,18,04,20,14.40
2016,04,18,04,21,14.40
2016,04,18,04,22,14.40
2016,04,18,04,23,14.40
2016,04,18,04,24,14.50
2016,04,18,04,25,14.50
2016,04,18,04,26,14.50
2016,04,18,04,27,14.40
2016,04,18,04,28,14.40
2016,04,18,04,29,14.40
2016,04,18,04,30,14.40
2016,04,18,04,31,14.40
2016,04,18,04,32,14.40
2016,04,18,04,33,14.40
2016,04,18,04,34,14.40
2016,04,18,04,35,14.40
2016,04,18,04,36,14.40
2016,04,18,04,37,14.40
2016,04,18,04,38,14.40
2016,04,18,04,39,14.40
2016,04,18,04,40,14.40
2016,04,18,04,41,14.40
2016,04,18,04,42,14.50
2016,04,18,04,43,14.50
2016,04,18,04,44,14.60
2016,04,18,04,45,14.60
2016,04,18,04,46,14.70
2016,04,18,04,47,14.70
2016,04,18,04,48,14.70
2016,04,18,04,49,14.70
2016,04,18,04,50,14.70
2016,04,18,04,51,14.70
2016,04,18,04,52,14.70
2016,04,18,04,53,14.70
2016,04,18,04,54,14.70
2016,04,18,04,55,14.70
2016,04,18,04,56,14.70
2016,04,18,04,57,14.70
2016,04,18,04,58,14.60
2016,04,18,04,59,14.60
2016,04,18,05,00,14.60
2016,04,18,05,01,14.70
2016,04,18,05,02,14.70
2016,04,18,05,03,14.70
2016,04,18,05,04,14.70
2016,04,18,05,05,14.70
2016,04,18,05,06,14.70
2016,04,18,05,07,14.70
2016,04,18,05,08,14.70
2016,04,18,05,09,14.70
2016,04,18,05,10,14.70
2016,04,18,05,11,14.70
2016,04,18,05,12,14.70
2016,04,18,05,13,14.70
2016,04,18,05,14,14.80
2016,04,18,05,15,14.80
2016,04,18,05,16,14.70
2016,04,18,05,17,14.70
2016,04,18,05,18,14.70
2016,04,18,05,19,14.60
2016,04,18,05,20,14.60
2016,04,18,05,21,14.50
2016,04,18,05,22,14.50
2016,04,18,05,23,14.40
2016,04,18,05,24,14.40
2016,04,18,05,25,14.30
2016,04,18,05,26,14.30
2016,04,18,05,27,14.30
2016,04,18,05,28,14.20
2016,04,18,05,29,14.20
2016,04,18,05,30,14.20
2016,04,18,05,31,14.20
2016,04,18,05,32,14.10
2016,04,18,05,33,14.10
2016,04,18,05,34,14.10
2016,04,18,05,35,14.10
2016,04,18,05,36,14.10
2016,04,18,05,37,14.10
2016,04,18,05,38,14.10
2016,04,18,05,39,14.20
2016,04,18,05,40,14.20
2016,04,18,05,41,14.20
2016,04,18,05,42,14.20
2016,04,18,05,43,14.20
2016,04,18,05,44,14.20
2016,04,18,05,45,14.20
2016,04,18,05,46,14.20
2016,04,18,05,47,14.20
2016,04,18,05,48,14.20
2016,04,18,05,49,14.20
2016,04,18,05,50,14.20
2016,04,18,05,51,14.20
2016,04,18,05,52,14.10
2016,04,18,05,53,14.10
2016,04,18,05,54,14.10
2016,04,18,05,55,14.10
2016,04,18,05,56,14.00
2016,04,18,05,57,14.00
2016,04,18,05,58,14.00
2016,04,18,05,59,14.00
2016,04,18,06,00,14.00
2016,04,18,06,01,14.00
2016,04,18,06,02,14.00
2016,04,18,06,03,14.00
2016,04,18,06,04,14.00
2016,04,18,06,05,14.10
2016,04,18,06,06,14.10
2016,04,18,06,07,14.10
2016,04,18,06,08,14.10
2016,04,18,06,09,14.10
2016,04,18,06,10,14.00
2016,04,18,06,11,14.00
2016,04,18,06,12,13.90
2016,04,18,06,13,13.90
2016,04,18,06,14,13.90
2016,04,18,06,15,13.90
2016,04,18,06,16,13.90
2016,04,18,06,17,13.90
2016,04,18,06,18,13.80
2016,04,18,06,19,13.80
2016,04,18,06,20,13.80
2016,04,18,06,21,13.80
2016,04,18,06,22,13.70
2016,04,18,06,23,13.70
2016,04,18,06,24,13.70
2016,04,18,06,25,13.70
2016,04,18,06,26,13.70
2016,04,18,06,27,13.60
2016,04,18,06,28,13.60
2016,04,18,06,29,13.60
2016,04,18,06,30,13.60
2016,04,18,06,31,13.60
2016,04,18,06,32,13.60
2016,04,18,06,33,13.60
2016,04,18,06,34,13.60
2016,04,18,06,35,13.50
2016,04,18,06,36,13.50
2016,04,18,06,37,13.50
2016,04,18,06,38,13.50
2016,04,18,06,39,13.50
2016,04,18,06,40,13.50
2016,04,18,06,41,13.50
2016,04,18,06,42,13.50
2016,04,18,06,43,13.60
2016,04,18,06,44,13.60
2016,04,18,06,45,13.60
2016,04,18,06,46,13.70
2016,04,18,06,47,13.70
2016,04,18,06,48,13.70
2016,04,18,06,49,13.70
2016,04,18,06,50,13.80
2016,04,18,06,51,13.80
2016,04,18,06,52,13.80
2016,04,18,06,53,13.80
2016,04,18,06,54,13.70
2016,04,18,06,55,13.70
2016,04,18,06,56,13.70
2016,04,18,06,57,13.70
2016,04,18,06,58,13.70
2016,04,18,06,59,13.80
2016,04,18,07,00,13.80
2016,04,18,07,01,13.80
2016,04,18,07,02,13.80
2016,04,18,07,03,13.80
2016,04,18,07,04,13.80
2016,04,18,07,05,13.90
2016,04,18,07,06,13.90
2016,04,18,07,07,13.90
2016,04,18,07,08,13.90
2016,04,18,07,09,13.90
2016,04,18,07,10,13.90
2016,04,18,07,11,13.90
2016,04,18,07,12,14.00
2016,04,18,07,13,14.00
2016,04,18,07,14,14.10
2016,04,18,07,15,14.10
2016,04,18,07,16,14.10
2016,04,18,07,17,14.10
2016,04,18,07,18,14.10
2016,04,18,07,19,14.10
2016,04,18,07,20,14.10
2016,04,18,07,21,14.10
2016,04,18,07,22,14.10
2016,04,18,07,23,14.10
2016,04,18,07,24,14.10
2016,04,18,07,25,14.10
2016,04,18,07,26,14.00
2016,04,18,07,27,14.00
2016,04,18,07,28,14.10
2016,04,18,07,29,14.10
2016,04,18,07,30,14.10
2016,04,18,07,31,14.10
2016,04,18,07,32,14.10
2016,04,18,07,33,14.20
2016,04,18,07,34,14.20
2016,04,18,07,35,14.30
2016,04,18,07,36,14.30
2016,04,18,07,37,14.30
2016,04,18,07,38,14.40
2016,04,18,07,39,14.40
2016,04,18,07,40,14.40
2016,04,18,07,41,14.40
2016,04,18,07,42,14.40
2016,04,18,07,43,14.40
2016,04,18,07,44,14.50
2016,04,18,07,45,14.50
2016,04,18,07,46,14.50
2016,04,18,07,47,14.50
2016,04,18,07,48,14.50
2016,04,18,07,49,14.50
2016,04,18,07,50,14.60
2016,04,18,07,51,14.60
2016,04,18,07,52,14.60
2016,04,18,07,53,14.60
2016,04,18,07,54,14.60
2016,04,18,07,55,14.60
2016,04,18,07,56,14.60
2016,04,18,07,57,14.60
2016,04,18,07,58,14.60
2016,04,18,07,59,14.60
2016,04,18,08,00,14.60
2016,04,18,08,01,14.60
2016,04,18,08,02,14.60
2016,04,18,08,03,14.60
2016,04,18,08,04,14.60
2016,04,18,08,05,14.60
2016,04,18,08,06,14.60
2016,04,18,08,07,14.60
2016,04,18,08,08,14.60
2016,04,18,08,09,14.60
2016,04,18,08,10,14.60
2016,04,18,08,11,14.60
2016,04,18,08,12,14.60
2016,04,18,08,13,14.60
2016,04,18,08,14,14.60
2016,04,18,08,15,14.60
2016,04,18,08,16,14.50
2016,04,18,08,17,14.60
2016,04,18,08,18,14.60
2016,04,18,08,19,14.60
2016,04,18,08,20,14.50
2016,04,18,08,21,14.50
2016,04,18,08,22,14.50
2016,04,18,08,23,14.50
2016,04,18,08,24,14.50
2016,04,18,08,25,14.50
2016,04,18,08,26,14.50
2016,04,18,08,27,14.50
2016,04,18,08,28,14.50
2016,04,18,08,29,14.50
2016,04,18,08,30,14.50
2016,04,18,08,31,14.50
2016,04,18,08,32,14.60
2016,04,18,08,33,14.60
2016,04,18,08,34,14.60
2016,04,18,08,35,14.60
2016,04,18,08,36,14.60
2016,04,18,08,37,14.70
2016,04,18,08,38,14.70
2016,04,18,08,39,14.70
2016,04,18,08,40,14.70
2016,04,18,08,41,14.80
2016,04,18,08,42,14.80
2016,04,18,08,43,14.80
2016,04,18,08,44,14.80
2016,04,18,08,45,14.80
2016,04,18,08,46,14.80
2016,04,18,08,47,14.80
2016,04,18,08,48,14.80
2016,04,18,08,49,14.80
2016,04,18,08,50,14.80
2016,04,18,08,51,14.80
2016,04,18,08,52,14.80
2016,04,18,08,53,14.80
2016,04,18,08,54,14.80
2016,04,18,08,55,14.90
2016,04,18,08,56,14.90
2016,04,18,08,57,14.90
2016,04,18,08,58,15.00
2016,04,18,08,59,15.10
2016,04,18,09,00,15.10
2016,04,18,09,01,15.10
2016,04,18,09,02,15.20
2016,04,18,09,03,15.20
2016,04,18,09,04,15.20
2016,04,18,09,05,15.30
2016,04,18,09,06,15.30
2016,04,18,09,07,15.30
2016,04,18,09,08,15.30
2016,04,18,09,09,15.30
2016,04,18,09,10,15.30
2016,04,18,09,11,15.30
2016,04,18,09,12,15.40
2016,04,18,09,13,15.40
2016,04,18,09,14,15.40
2016,04,18,09,15,15.50
2016,04,18,09,16,15.50
2016,04,18,09,17,15.60
2016,04,18,09,18,15.70
2016,04,18,09,19,15.70
2016,04,18,09,20,15.70
2016,04,18,09,21,15.80
2016,04,18,09,22,15.80
2016,04,18,09,23,15.80
2016,04,18,09,24,15.80
2016,04,18,09,25,15.90
2016,04,18,09,26,15.90
2016,04,18,09,27,15.90
2016,04,18,09,28,15.90
2016,04,18,09,29,15.90
2016,04,18,09,30,16.00
2016,04,18,09,31,16.00
2016,04,18,09,32,16.00
2016,04,18,09,33,16.10
2016,04,18,09,34,16.10
2016,04,18,09,35,16.10
2016,04,18,09,36,16.10
2016,04,18,09,37,16.20
2016,04,18,09,38,16.20
2016,04,18,09,39,16.20
2016,04,18,09,40,16.30
2016,04,18,09,41,16.30
2016,04,18,09,42,16.40
2016,04,18,09,43,16.50
2016,04,18,09,44,16.50
2016,04,18,09,45,16.60
2016,04,18,09,46,16.60
2016,04,18,09,47,16.70
2016,04,18,09,48,16.70
2016,04,18,09,49,16.70
2016,04,18,09,50,16.80
2016,04,18,09,51,16.80
2016,04,18,09,52,16.80
2016,04,18,09,53,16.90
2016,04,18,09,54,16.90
2016,04,18,09,55,17.00
2016,04,18,09,56,17.10
2016,04,18,09,57,17.10
2016,04,18,09,58,17.20
2016,04,18,09,59,17.20
2016,04,18,10,00,17.30
2016,04,18,10,01,17.30
2016,04,18,10,02,17.40
2016,04,18,10,03,17.40
2016,04,18,10,04,17.50
2016,04,18,10,05,17.50
2016,04,18,10,06,17.60
2016,04,18,10,07,17.60
2016,04,18,10,08,17.60
2016,04,18,10,09,17.60
2016,04,18,10,10,17.70
2016,04,18,10,11,17.60
2016,04,18,10,12,17.60
2016,04,18,10,13,17.60
2016,04,18,10,14,17.60
2016,04,18,10,15,17.60
2016,04,18,10,16,17.70
2016,04,18,10,17,17.70
2016,04,18,10,18,17.70
2016,04,18,10,19,17.80
2016,04,18,10,20,17.80
2016,04,18,10,21,17.80
2016,04,18,10,22,17.90
2016,04,18,10,23,18.00
2016,04,18,10,24,18.00
2016,04,18,10,25,18.10
2016,04,18,10,26,18.10
2016,04,18,10,27,18.20
2016,04,18,10,28,18.20
2016,04,18,10,29,18.20
2016,04,18,10,30,18.30
2016,04,18,10,31,18.30
2016,04,18,10,32,18.30
2016,04,18,10,33,18.30
2016,04,18,10,34,18.30
2016,04,18,10,35,18.30
2016,04,18,10,36,18.30
2016,04,18,10,37,18.30
2016,04,18,10,38,18.30
2016,04,18,10,39,18.30
2016,04,18,10,40,18.30
2016,04,18,10,41,18.30
2016,04,18,10,42,18.30
2016,04,18,10,43,18.30
2016,04,18,10,44,18.40
2016,04,18,10,45,18.40
2016,04,18,10,46,18.40
2016,04,18,10,47,18.50
2016,04,18,10,48,18.50
2016,04,18,10,49,18.60
2016,04,18,10,50,18.60
2016,04,18,10,51,18.60
2016,04,18,10,52,18.60
2016,04,18,10,53,18.70
2016,04,18,10,54,18.70
2016,04,18,10,55,18.70
2016,04,18,10,56,18.70
2016,04,18,10,57,18.70
2016,04,18,10,58,18.80
2016,04,18,10,59,18.80
2016,04,18,11,00,18.90
2016,04,18,11,01,18.90
2016,04,18,11,02,19.00
2016,04,18,11,03,19.00
2016,04,18,11,04,19.00
2016,04,18,11,05,19.10
2016,04,18,11,06,19.10
2016,04,18,11,07,19.10
2016,04,18,11,08,19.10
2016,04,18,11,09,19.10
2016,04,18,11,10,19.10
2016,04,18,11,11,19.20
2016,04,18,11,12,19.20
2016,04,18,11,13,19.30
2016,04,18,11,14,19.30
2016,04,18,11,15,19.40
2016,04,18,11,16,19.40
2016,04,18,11,17,19.50
2016,04,18,11,18,19.50
2016,04,18,11,19,19.50
2016,04,18,11,20,19.50
2016,04,18,11,21,19.60
2016,04,18,11,22,19.60
2016,04,18,11,23,19.60
2016,04,18,11,24,19.60
2016,04,18,11,25,19.70
2016,04,18,11,26,19.70
2016,04,18,11,27,19.70
2016,04,18,11,28,19.70
2016,04,18,11,29,19.70
2016,04,18,11,30,19.80
2016,04,18,11,31,19.80
2016,04,18,11,32,19.90
2016,04,18,11,33,19.90
2016,04,18,11,34,19.90
2016,04,18,11,35,19.90
2016,04,18,11,36,19.90
2016,04,18,11,37,19.90
2016,04,18,11,38,20.00
2016,04,18,11,39,20.00
2016,04,18,11,40,19.90
2016,04,18,11,41,19.90
2016,04,18,11,42,19.90
2016,04,18,11,43,19.90
2016,04,18,11,44,20.00
2016,04,18,11,45,20.00
2016,04,18,11,46,20.10
2016,04,18,11,47,20.10
2016,04,18,11,48,20.20
2016,04,18,11,49,20.20
2016,04,18,11,50,20.30
2016,04,18,11,51,20.30
2016,04,18,11,52,20.30
2016,04,18,11,53,20.30
2016,04,18,11,54,20.30
2016,04,18,11,55,20.40
2016,04,18,11,56,20.40
2016,04,18,11,57,20.40
2016,04,18,11,58,20.40
2016,04,18,11,59,20.50
2016,04,18,12,00,20.60
2016,04,18,12,01,20.60
2016,04,18,12,02,20.60
2016,04,18,12,03,20.70
2016,04,18,12,04,20.70
2016,04,18,12,05,20.70
2016,04,18,12,06,20.80
2016,04,18,12,07,20.80
2016,04,18,12,08,20.80
2016,04,18,12,09,20.90
2016,04,18,12,10,20.90
2016,04,18,12,11,21.00
2016,04,18,12,12,21.10
2016,04,18,12,13,21.10
2016,04,18,12,14,21.20
2016,04,18,12,15,21.20
2016,04,18,12,16,21.20
2016,04,18,12,17,21.30
2016,04,18,12,18,21.30
2016,04,18,12,19,21.40
2016,04,18,12,20,21.40
2016,04,18,12,21,21.50
2016,04,18,12,22,21.60
2016,04,18,12,23,21.70
2016,04,18,12,24,21.80
2016,04,18,12,25,21.80
2016,04,18,12,26,21.90
2016,04,18,12,27,21.90
2016,04,18,12,28,22.00
2016,04,18,12,29,22.00
2016,04,18,12,30,22.00
2016,04,18,12,31,22.00
2016,04,18,12,32,21.90
2016,04,18,12,33,21.90
2016,04,18,12,34,21.80
2016,04,18,12,35,21.80
2016,04,18,12,36,21.80
2016,04,18,12,37,21.80
2016,04,18,12,38,21.90
2016,04,18,12,39,21.90
2016,04,18,12,40,22.00
2016,04,18,12,41,22.10
2016,04,18,12,42,22.10
2016,04,18,12,43,22.10
2016,04,18,12,44,22.10
2016,04,18,12,45,22.20
2016,04,18,12,46,22.20
2016,04,18,12,47,22.20
2016,04,18,12,48,22.30
2016,04,18,12,49,22.30
2016,04,18,12,50,22.40
2016,04,18,12,51,22.50
2016,04,18,12,52,22.50
2016,04,18,12,53,22.60
2016,04,18,12,54,22.70
2016,04,18,12,55,22.70
2016,04,18,12,56,22.70
2016,04,18,12,57,22.70
2016,04,18,12,58,22.70
2016,04,18,12,59,22.70
2016,04,18,13,00,22.70
2016,04,18,13,01,22.70
2016,04,18,13,02,22.80
2016,04,18,13,03,22.80
2016,04,18,13,04,22.80
2016,04,18,13,05,22.90
2016,04,18,13,06,22.90
2016,04,18,13,07,22.90
2016,04,18,13,08,22.90
2016,04,18,13,09,22.90
2016,04,18,13,10,22.90
2016,04,18,13,11,22.90
2016,04,18,13,12,22.90
2016,04,18,13,13,22.90
2016,04,18,13,14,22.90
2016,04,18,13,15,22.90
2016,04,18,13,16,22.90
2016,04,18,13,17,22.90
2016,04,18,13,18,23.00
2016,04,18,13,19,23.10
2016,04,18,13,20,23.10
2016,04,18,13,21,23.10
2016,04,18,13,22,23.10
2016,04,18,13,23,23.00
2016,04,18,13,24,22.90
2016,04,18,13,25,22.90
2016,04,18,13,26,22.90
2016,04,18,13,27,22.80
2016,04,18,13,28,22.80
2016,04,18,13,29,22.80
2016,04,18,13,30,22.80
2016,04,18,13,31,22.80
2016,04,18,13,32,22.90
2016,04,18,13,33,22.90
2016,04,18,13,34,23.00
2016,04,18,13,35,23.00
2016,04,18,13,36,23.10
2016,04,18,13,37,23.20
2016,04,18,13,38,23.20
2016,04,18,13,39,23.30
2016,04,18,13,40,23.40
2016,04,18,13,41,23.50
2016,04,18,13,42,23.60
2016,04,18,13,43,23.60
2016,04,18,13,44,23.60
2016,04,18,13,45,23.50
2016,04,18,13,46,23.50
2016,04,18,13,47,23.40
2016,04,18,13,48,23.30
2016,04,18,13,49,23.20
2016,04,18,13,50,23.10
2016,04,18,13,51,23.10
2016,04,18,13,52,23.00
2016,04,18,13,53,22.90
2016,04,18,13,54,22.90
2016,04,18,13,55,22.80
2016,04,18,13,56,22.80
2016,04,18,13,57,22.80
2016,04,18,13,58,22.80
2016,04,18,13,59,22.80
2016,04,18,14,00,22.90
2016,04,18,14,01,23.00
2016,04,18,14,02,23.10
2016,04,18,14,03,23.20
2016,04,18,14,04,23.30
2016,04,18,14,05,23.40
2016,04,18,14,06,23.40
2016,04,18,14,07,23.50
2016,04,18,14,08,23.60
2016,04,18,14,09,23.60
2016,04,18,14,10,23.70
2016,04,18,14,11,23.70
2016,04,18,14,12,23.70
2016,04,18,14,13,23.70
2016,04,18,14,14,23.80
2016,04,18,14,15,23.80
2016,04,18,14,16,23.90
2016,04,18,14,17,23.90
2016,04,18,14,18,23.90
2016,04,18,14,19,24.00
2016,04,18,14,20,24.10
2016,04,18,14,21,24.10
2016,04,18,14,22,24.10
2016,04,18,14,23,24.10
2016,04,18,14,24,24.10
2016,04,18,14,25,24.20
2016,04,18,14,26,24.20
2016,04,18,14,27,24.20
2016,04,18,14,28,24.20
2016,04,18,14,29,24.20
2016,04,18,14,30,24.20
2016,04,18,14,31,24.20
2016,04,18,14,32,24.20
2016,04,18,14,33,24.30
2016,04,18,14,34,24.30
2016,04,18,14,35,24.30
2016,04,18,14,36,24.30
2016,04,18,14,37,24.30
2016,04,18,14,38,24.30
2016,04,18,14,39,24.30
2016,04,18,14,40,24.40
2016,04,18,14,41,24.40
2016,04,18,14,42,24.50
2016,04,18,14,43,24.50
2016,04,18,14,44,24.60
2016,04,18,14,45,24.60
2016,04,18,14,46,24.60
2016,04,18,14,47,24.70
2016,04,18,14,48,24.70
2016,04,18,14,49,24.60
2016,04,18,14,50,24.60
2016,04,18,14,51,24.60
2016,04,18,14,52,24.50
2016,04,18,14,53,24.50
2016,04,18,14,54,24.50
2016,04,18,14,55,24.40
2016,04,18,14,56,24.40
2016,04,18,14,57,24.40
2016,04,18,14,58,24.30
2016,04,18,14,59,24.30
2016,04,18,15,00,24.40
2016,04,18,15,01,24.40
2016,04,18,15,02,24.50
2016,04,18,15,03,24.50
2016,04,18,15,04,24.60
2016,04,18,15,05,24.60
2016,04,18,15,06,24.70
2016,04,18,15,07,24.60
2016,04,18,15,08,24.60
2016,04,18,15,09,24.50
2016,04,18,15,10,24.50
2016,04,18,15,11,24.40
2016,04,18,15,12,24.40
2016,04,18,15,13,24.30
2016,04,18,15,14,24.20
2016,04,18,15,15,24.10
2016,04,18,15,16,24.10
2016,04,18,15,17,24.00
2016,04,18,15,18,23.90
2016,04,18,15,19,23.80
2016,04,18,15,20,23.80
2016,04,18,15,21,23.70
2016,04,18,15,22,23.60
2016,04,18,15,23,23.50
2016,04,18,15,24,23.50
2016,04,18,15,25,23.40
2016,04,18,15,26,23.40
2016,04,18,15,27,23.30
2016,04,18,15,28,23.30
2016,04,18,15,29,23.30
2016,04,18,15,30,23.30
2016,04,18,15,31,23.30
2016,04,18,15,32,23.40
2016,04,18,15,33,23.40
2016,04,18,15,34,23.50
2016,04,18,15,35,23.50
2016,04,18,15,36,23.60
2016,04,18,15,37,23.70
2016,04,18,15,38,23.80
2016,04,18,15,39,23.80
2016,04,18,15,40,23.90
2016,04,18,15,41,23.90
2016,04,18,15,42,24.00
2016,04,18,15,43,24.10
2016,04,18,15,44,24.10
2016,04,18,15,45,24.10
2016,04,18,15,46,24.20
2016,04,18,15,47,24.20
2016,04,18,15,48,24.30
2016,04,18,15,49,24.30
2016,04,18,15,50,24.30
2016,04,18,15,51,24.30
2016,04,18,15,52,24.30
2016,04,18,15,53,24.30
2016,04,18,15,54,24.40
2016,04,18,15,55,24.40
2016,04,18,15,56,24.50
2016,04,18,15,57,24.50
2016,04,18,15,58,24.60
2016,04,18,15,59,24.60
2016,04,18,16,00,24.70
2016,04,18,16,01,24.80
2016,04,18,16,02,24.90
2016,04,18,16,03,24.90
2016,04,18,16,04,25.00
2016,04,18,16,05,25.10
2016,04,18,16,06,25.10
2016,04,18,16,07,25.10
2016,04,18,16,08,25.10
2016,04,18,16,09,25.10
2016,04,18,16,10,25.10
2016,04,18,16,11,25.20
2016,04,18,16,12,25.20
2016,04,18,16,13,25.20
2016,04,18,16,14,25.30
2016,04,18,16,15,25.30
2016,04,18,16,16,25.40
2016,04,18,16,17,25.40
2016,04,18,16,18,25.40
2016,04,18,16,19,25.40
2016,04,18,16,20,25.50
2016,04,18,16,21,25.50
2016,04,18,16,22,25.50
2016,04,18,16,23,25.60
2016,04,18,16,24,25.60
2016,04,18,16,25,25.60
2016,04,18,16,26,25.70
2016,04,18,16,27,25.80
2016,04,18,16,28,25.80
2016,04,18,16,29,25.80
2016,04,18,16,30,25.80
2016,04,18,16,31,25.80
2016,04,18,16,32,25.90
2016,04,18,16,33,25.90
2016,04,18,16,34,25.90
2016,04,18,16,35,25.90
2016,04,18,16,36,25.90
2016,04,18,16,37,25.90
2016,04,18,16,38,25.90
2016,04,18,16,39,25.90
2016,04,18,16,40,25.90
2016,04,18,16,41,25.90
2016,04,18,16,42,25.90
2016,04,18,16,43,25.90
2016,04,18,16,44,25.90
2016,04,18,16,45,25.80
2016,04,18,16,46,25.70
2016,04,18,16,47,25.60
2016,04,18,16,48,25.50
2016,04,18,16,49,25.40
2016,04,18,16,50,25.30
2016,04,18,16,51,25.20
2016,04,18,16,52,25.10
2016,04,18,16,53,25.00
2016,04,18,16,54,24.90
2016,04,18,16,55,24.80
2016,04,18,16,56,24.80
2016,04,18,16,57,24.80
2016,04,18,16,58,24.80
2016,04,18,16,59,24.80
2016,04,18,17,00,24.80
2016,04,18,17,01,24.90
2016,04,18,17,02,24.90
2016,04,18,17,03,24.90
2016,04,18,17,04,24.90
2016,04,18,17,05,24.90
2016,04,18,17,06,24.90
2016,04,18,17,07,25.00
2016,04,18,17,08,25.10
2016,04,18,17,09,25.10
2016,04,18,17,10,25.20
2016,04,18,17,11,25.20
2016,04,18,17,12,25.30
2016,04,18,17,13,25.30
2016,04,18,17,14,25.40
2016,04,18,17,15,25.40
2016,04,18,17,16,25.40
2016,04,18,17,17,25.40
2016,04,18,17,18,25.40
2016,04,18,17,19,25.40